Tracking 32139 objects as of 18-Nov-2025
HD Live streaming from Space Station
objects crossing your sky now

STARLINK-31406

Track STARLINK-31406 now!
10-day predictions
STARLINK-31406 is classified as:


NORAD ID: 59017
Int'l Code: 2024-036V
Perigee: 481.7 km
Apogee: 483.1 km
Inclination: 53.2 °
Period: 94.1 minutes
Semi major axis: 6853 km
RCS: Unknown
Launch date: February 23, 2024
Source: United States (US)
Launch site: AIR FORCE WESTERN TEST RANGE (AFWTR)
Your satellite tracking list
Your tracking list is empty




NASA's NSSDC Master Catalog

Two Line Element Set (TLE):
1 59017U 24036V   25322.03298617 -.00001826  00000-0 -49581-4 0  9997
2 59017  53.1595 223.5922 0001024  91.8260 268.2858 15.30178483 98411
Source of the keplerian elements: AFSPC